DW5678 Kavala GR current weather conditions

sailwx.info

Wind from 005

Air temperature 25.0° C
Dewpoint 16.7° C

Last reported at 2016-Aug-31 03:30 UTC.
Time now 2016-Aug-31 06:03 UTC

Location: N 40°56' E 024°24'.
View on Google Maps.

See reports from other nearby stations

  
Tides and Currents Weather Stations Pressure Air Temp Water Temp Dewpoint Dewpoint Depression Visibility Wind Speed Wind Dir Waves Ship Positions
date/time (UTC)wind fromknots sea level pressurealtimeterstation pressurevisibilityair tempwater tempwave heightnotes
2016-Aug-31 03:30 005 25.0
2016-Aug-31 02:45 017 24.4
2016-Aug-31 02:15 017 25.0
2016-Aug-31 02:00 017 25.0
2016-Aug-31 01:30 285 25.0
2016-Aug-31 01:15 285 24.4
2016-Aug-31 01:00 285 0 gusting 1 24.4
2016-Aug-31 00:45 335 24.4
2016-Aug-31 00:30 335 24.4
2016-Aug-31 00:15 335 24.4
2016-Aug-31 00:00 335 24.4
2016-Aug-30 23:15 278 24.4
2016-Aug-30 23:00 278 0 gusting 2 25.0
2016-Aug-30 22:45 323 0 gusting 1 25.0
2016-Aug-30 22:30 283 25.6
2016-Aug-30 22:00 246 25.6
2016-Aug-30 21:45 246 25.6
2016-Aug-30 21:30 246 25.6
2016-Aug-30 20:45 207 25.6
2016-Aug-30 20:30 207 25.6
2016-Aug-30 20:15 207 25.6
2016-Aug-30 20:00 207 25.6
2016-Aug-30 19:45 207 25.6
2016-Aug-30 19:30 207 25.6
2016-Aug-30 19:15 207 25.0
2016-Aug-30 18:45 207 25.0
2016-Aug-30 18:00 207 25.0
2016-Aug-30 17:30 105 25.6
2016-Aug-30 17:15 105 25.6
2016-Aug-30 17:00 105 25.6
2016-Aug-30 16:30 136 25.6
2016-Aug-30 16:00 127 25.6
2016-Aug-30 15:45 117 0 gusting 2 25.6
2016-Aug-30 15:30 077 26.1
2016-Aug-30 14:45 144 0 gusting 6 26.1
2016-Aug-30 14:30 202 2 gusting 6 25.6
2016-Aug-30 14:15 196 25.6
2016-Aug-30 14:00 138 26.1
2016-Aug-30 13:30 207 2 gusting 6 27.2
2016-Aug-30 13:00 233 1 gusting 6 27.2
2016-Aug-30 12:15 242 2 gusting 5 26.1
2016-Aug-30 12:00 227 0 gusting 5 26.7
2016-Aug-30 11:45 197 1 gusting 5 27.2
2016-Aug-30 11:30 228 1 gusting 6 27.2
2016-Aug-30 11:15 211 1 gusting 6 26.7
2016-Aug-30 10:15 187 1 gusting 5 26.7
2016-Aug-30 10:00 123 2 gusting 5 26.7
2016-Aug-30 09:30 193 0 gusting 6 26.1
2016-Aug-30 09:15 137 1 gusting 6 26.1
2016-Aug-30 09:00 223 1 gusting 6 26.1
2016-Aug-30 08:45 229 0 gusting 6 25.6
2016-Aug-30 08:30 211 1 gusting 6 26.1
2016-Aug-30 08:15 125 1 gusting 6 26.7
2016-Aug-30 08:00 142 26.7
2016-Aug-30 07:15 149 0 gusting 2 26.7
2016-Aug-30 06:45 223 1 gusting 4 26.1
2016-Aug-30 06:15 059 0 gusting 2 25.6
2016-Aug-30 06:00 040 0 gusting 1 25.0
2016-Aug-30 05:45 040 24.4
2016-Aug-30 05:30 040 24.4
2016-Aug-30 05:15 040 24.4
2016-Aug-30 05:00 040 23.9
2016-Aug-30 04:45 040 23.9
2016-Aug-30 04:30 040 23.3
2016-Aug-30 04:15 040 23.9
2016-Aug-30 04:00 040 23.9
2016-Aug-30 03:45 040 23.9
2016-Aug-30 03:30 040 23.9
2016-Aug-30 03:15 040 23.9
2016-Aug-30 02:45 040 24.4
2016-Aug-30 02:30 040 24.4
2016-Aug-30 02:00 040 23.9
2016-Aug-30 01:30 040 23.9
2016-Aug-30 00:45 040 23.9
2016-Aug-29 23:45 040 23.9
2016-Aug-29 23:00 040 23.9
2016-Aug-29 22:45 040 23.9
2016-Aug-29 22:15 040 23.9
2016-Aug-29 21:30 040 23.9
2016-Aug-29 21:15 040 23.9
2016-Aug-29 21:00 040 23.9
2016-Aug-29 20:00 040 24.4
2016-Aug-29 19:45 040 24.4
2016-Aug-29 19:30 040 24.4
2016-Aug-29 19:15 040 0 gusting 0 25.0
2016-Aug-29 19:00 040 25.0
2016-Aug-29 18:45 040 25.0
2016-Aug-29 18:30 040 25.0
2016-Aug-29 17:30 239 25.6
2016-Aug-29 17:15 239 25.6
2016-Aug-29 17:00 209 25.6
2016-Aug-29 16:45 175 25.6
2016-Aug-29 16:30 183 26.1
2016-Aug-29 16:15 192 26.1
2016-Aug-29 16:00 209 1 gusting 4 25.6
2016-Aug-29 15:45 215 1 gusting 5 26.1
2016-Aug-29 15:30 217 0 gusting 2 26.1
2016-Aug-29 14:00 208 0 gusting 4 26.1
2016-Aug-29 13:45 204 0 gusting 4 26.7
2016-Aug-29 13:15 208 0 gusting 4 26.7
2016-Aug-29 13:00 178 0 gusting 4 25.6
2016-Aug-29 12:00 177 26.7
2016-Aug-29 11:45 214 3 gusting 6 27.2
2016-Aug-29 11:30 235 3 gusting 6 27.2
2016-Aug-29 10:45 198 2 gusting 7 27.2
2016-Aug-29 09:15 217 1 gusting 6 27.2
2016-Aug-29 09:00 197 1 gusting 5 26.7
2016-Aug-29 08:45 153 0 gusting 6 26.7
2016-Aug-29 08:30 216 1 gusting 5 26.7
2016-Aug-29 08:00 208 1 gusting 5 25.6
2016-Aug-29 07:00 177 0 gusting 4 25.6
2016-Aug-29 06:30 154 0 gusting 2 25.6
2016-Aug-29 06:15 117 0 gusting 2 25.0
2016-Aug-29 06:00 119 0 gusting 2 25.0